Simultaneous Nadir Overpasses (SNOs) Predictions

Prediction of SNOs between LANDSAT-8 and NOAA-19 Satellite Orbit:

Table of predicted SNOs for the next 14.0 days since TLE Epoch: 1/6/2024
Index Date (LANDSAT-8) Time (LANDSAT-8) Lat,Lon (LANDSAT-8) SZA (LANDSAT-8 ) Date (NOAA-19) Time (NOAA-19) Lat,Lon (NOAA-19) SZA (NOAA-19 ) Distance(km) Time Diff (sec)
1 01/07/2024 08:02:35 -80.87, -84.38 75.21 01/07/2024 08:02:42 -80.87, -84.41 75.21 0.74 7
2 01/09/2024 14:25:47 -80.87, 179.82 75.53 01/09/2024 14:25:53 -80.87, 179.88 75.52 1.37 6
3 01/11/2024 20:48:59 -80.86, 83.94 75.90 01/11/2024 20:49:04 -80.87, 84.11 75.88 3.15 5
4 01/14/2024 03:12:10 -80.88, -11.66 76.26 01/14/2024 03:12:15 -80.87, -11.74 76.27 1.65 5
5 01/16/2024 09:35:22 -80.86,-107.68 76.72 01/16/2024 09:35:26 -80.87,-107.66 76.71 0.63 4



Historial Predications of SNOs between LANDSAT-8 and NOAA-19
